Location: Killam
(52.7910°N, 111.8608°W)
Time: 20:43:23
(UTC+00:00)

A-11 Canister half - Pass Details

Date: 22 February 2026
Orbit: 1525 x 1683 km, 47.3° (Epoch: 5 March)

Event Time Altitude Azimuth Distance (km) Brightness Sun altitude
Rises 21:27:17 0° 198° (SSW) 4,756 13.0 23.3°
Reaches altitude 10° 21:31:05 10° 186° (S) 3,750 12.4 23.0°
Maximum altitude 21:38:13 25° 137° (SE) 2,728 10.7 22.4°
Drops below altitude 10° 21:45:15 10° 87° (E) 3,700 10.7 21.9°
Sets 21:48:57 0° 75° (ENE) 4,680 11.1 21.6°
